Temp_Advection
nan nan nan nan nan nan nan nan nan nan nan nan nan nan nan nan nan nan nan nan nan nan nan nan nan nan nan nan nan nan nan nan nan nan nan nan nan nan nan nan nan nan nan nan nan nan nan
nan 1 1 0 -0 -0 -0 -0 -0 -0 -0 -1 -1 -0 -0 -0 -0 -0 -0 -0 -0 0 -0 -0 -0 -0 -0 -1 0 0 -0 0 0 -0 -0 -0 -0 -0 -0 -0 -0 -0 -0 -0 -0 -0 nan
nan 0 1 1 -0 -0 -0 0 0 -0 -0 -0 -1 -0 -0 -0 -0 -0 -0 -0 -0 -0 0 -0 -0 0 -0 -3 0 0 0 0 0 -0 -0 -0 -0 -0 -0 -0 -0 0 0 0 0 0 nan
nan 0 0 1 1 0 -0 -0 0 -0 -0 -0 -1 -0 -0 -0 -0 -0 -0 -0 -0 -0 0 -0 -0 0 -1 -0 -0 -0 -0 -0 -0 -0 -0 -0 -0 -0 -0 -1 -0 0 0 0 -0 -0 nan
nan 0 0 0 1 1 -0 -0 0 0 -0 -0 -0 -1 -0 -0 -0 -0 -0 -0 -0 -0 -0 -0 0 -0 -1 -0 -0 -0 -0 -0 -0 0 -0 0 -0 -0 -0 -0 -0 0 0 -0 0 -1 nan
nan -1 -0 0 1 1 1 -0 0 -0 -0 -0 -0 -0 -0 -0 -0 -0 -0 -0 -0 -0 -0 -0 -0 -0 -2 -1 -0 -0 -0 -0 -0 -0 0 -0 -0 -0 -0 -0 0 0 -0 -1 -1 -1 nan
nan 0 -0 -0 0 0 1 1 0 -0 -0 0 -0 -0 -0 -0 -0 -0 -0 -0 0 0 -1 -2 -0 -1 -0 0 0 -0 -0 -0 -0 -0 -0 -0 -0 -0 -0 -0 -0 -0 -0 -1 -1 -0 nan
nan 1 -1 -2 -1 0 1 1 0 -1 -0 0 -0 -0 -0 -0 -0 -0 0 -0 0 0 -0 -1 -0 -1 -0 -0 -0 -0 -0 -0 -0 -0 -0 0 -0 -0 -0 -0 -0 -0 -0 0 0 0 nan
nan -1 1 1 -1 -1 0 1 1 -0 0 0 -0 -0 -0 -0 -0 -0 -0 -1 0 -1 -1 -1 -1 -1 -1 -0 -1 -0 -0 -0 -0 0 0 -0 -1 -0 0 0 -0 -0 0 0 0 1 nan
nan 0 -1 0 -0 -1 -1 1 1 -0 -0 0 -0 -0 -0 -0 -0 -0 -1 -0 0 -0 -1 -0 -1 -0 -0 -0 -1 -0 0 -0 0 0 1 -0 -2 -0 -0 -0 0 -0 -1 0 -0 0 nan
nan -0 0 0 -0 -1 -1 1 1 -0 -0 -0 -0 -0 -0 0 -0 -0 0 0 0 -0 -1 0 -0 -0 -0 -0 -0 0 0 -0 -0 -0 -0 -0 -0 -0 -0 -0 -0 -0 -0 -0 -0 -0 nan
nan -0 0 -0 -1 -0 -1 -0 0 -0 -0 0 -0 -0 0 -0 -1 -0 0 0 -0 -0 -1 1 0 -0 -0 -0 -0 0 0 -0 -0 0 0 0 -1 0 0 -0 0 -0 0 -0 -0 1 nan
nan -1 -0 -0 -0 -1 -2 -1 -0 -0 -0 0 0 -0 -0 -0 -0 -0 0 -0 -0 -1 -1 -0 -0 -0 0 -0 -0 0 0 0 0 0 0 -0 -1 0 -0 0 0 0 0 1 -0 -1 nan
nan -1 -1 -0 -1 -1 -1 -1 -0 -0 -0 0 1 0 0 -0 0 -0 0 -0 -1 -2 -2 -0 -0 0 0 -0 -0 0 0 -0 -1 -0 0 1 1 0 -0 0 -0 -1 1 1 -0 -0 nan
nan -1 -1 -1 -1 -1 -1 -1 -0 -1 -0 0 1 1 -1 -2 0 0 -0 -1 -1 -1 -1 -0 0 0 -0 -0 0 0 0 -1 -0 0 1 -0 -1 -1 0 0 0 0 -0 0 1 -1 nan
nan -2 -1 -1 -1 -1 -0 -0 -1 -0 0 0 0 -1 -4 -0 0 -0 -1 -2 -2 -2 -0 0 0 -0 -0 0 0 0 -0 -1 -0 0 -0 -2 -0 -4 0 0 0 -0 -0 0 0 0 nan
nan -1 -1 -0 -0 -0 -0 -0 -0 0 0 0 -0 -1 -1 1 -0 -1 -1 -2 -2 -2 -0 0 -0 -0 -0 -0 -0 -0 0 0 0 0 0 0 -2 0 0 -0 -0 -0 0 -0 0 0 nan
nan -1 -0 -0 -0 -0 -0 -1 -0 -0 -0 -0 -1 -1 1 -0 -1 -2 -1 -2 -2 -1 0 -0 -0 -0 -0 -0 0 0 -0 -1 1 0 0 0 0 0 -0 -0 0 0 0 0 -0 -0 nan
nan -0 0 -0 -1 -0 -0 -0 0 -0 -0 -1 -1 -0 1 1 -1 -1 -2 -2 -1 -1 -0 0 -0 -1 0 0 -0 -0 0 -0 0 0 0 0 0 0 -1 0 0 0 -0 -0 0 -0 nan
nan -0 -1 -1 -0 -1 -1 -0 -0 -0 -0 -0 -0 -0 -1 -0 -2 -1 -1 -1 -1 -1 -0 -0 -0 -0 0 0 0 0 0 -0 0 -0 -0 -0 0 0 -0 -1 -0 0 -0 0 1 -0 nan
nan -1 -1 -0 -1 -1 -1 -0 -0 -0 -0 0 -1 -1 -1 -1 -1 -1 -0 -1 -1 -0 -0 0 0 0 0 0 0 0 0 -0 -0 0 -0 0 0 -1 -1 -0 0 -0 -0 0 0 -0 nan
nan -0 -0 -1 -1 -1 -0 0 -0 -0 0 -1 -1 -0 -1 -1 -1 -0 -0 -1 -1 -1 -0 -0 -0 -0 0 -0 0 0 1 -0 -0 -0 -0 0 0 -0 -0 -1 -0 -0 -1 -0 -0 -0 nan
nan -0 -0 -1 -0 -0 -0 -0 -0 0 -0 -2 -2 -1 -0 -0 -1 -1 -1 -1 -1 -0 -0 -0 -0 0 1 0 -1 -0 0 0 0 -0 -0 0 -0 0 0 -1 -1 -0 -1 -1 -1 -0 nan
nan -0 -1 -1 -0 -0 -1 -0 -0 -0 -1 -1 -2 -1 0 1 -1 -1 -1 -1 -1 -0 0 0 1 1 -1 0 0 -0 -0 -0 -0 0 0 -0 0 -0 -0 -0 -0 -2 0 0 -0 -0 nan
nan -0 -0 -0 -0 -1 -0 -0 -0 0 -1 -1 -1 -0 0 -0 -0 -1 -1 -1 0 1 1 1 -1 0 0 -0 -0 -0 -0 0 0 0 0 -0 -0 -0 0 -0 -1 -1 0 -0 -0 -0 nan
nan -0 -1 -1 -1 -1 -0 0 1 -0 -2 -1 0 0 -1 -1 -1 -1 -0 1 0 0 -1 -0 1 1 0 -0 0 -0 -0 -0 -0 0 0 -0 -0 0 -0 0 -0 0 -0 -0 -0 0 nan
nan -1 -1 -0 -0 -0 -0 -0 -0 -1 -1 -0 -2 -1 -1 -1 -1 -0 0 0 0 -0 -0 -1 0 0 0 -0 0 0 0 0 -0 -0 0 0 0 0 0 0 -1 0 -0 -0 0 0 nan
nan -1 -0 -0 -0 -0 -1 -0 -1 -2 -1 -2 -2 -0 -1 -1 2 1 1 1 0 -1 -0 0 -0 -0 -0 -0 -0 0 0 0 0 -0 -1 -0 -0 -0 -0 -0 -1 1 -0 -0 0 0 nan
nan nan nan nan nan nan nan nan nan nan nan nan nan nan nan nan nan nan nan nan nan nan nan nan nan nan nan nan nan nan nan nan nan nan nan nan nan nan nan nan nan nan nan nan nan nan nan
Wind_Speed
35 34 29 26 26 23 21 20 20 19 19 19 18 17 17 18 18 19 20 22 22 22 18 15 10 8 8 6 11 7 5 3 8 14 9 12 11 12 15 16 11 13 17 2 5 14 8
24 32 36 32 29 27 25 23 22 20 19 19 18 17 17 17 18 18 20 22 20 19 15 11 7 7 6 8 2 5 4 3 6 13 7 8 8 10 15 13 12 9 14 6 6 8 20
25 23 27 37 35 30 27 24 23 21 20 20 18 17 17 17 18 18 19 20 19 15 12 8 6 7 10 15 1 1 4 3 7 9 13 7 11 9 5 12 8 3 9 2 2 4 5
29 26 24 27 37 32 28 25 24 22 20 20 19 18 16 16 18 18 19 18 16 12 7 5 5 6 11 1 8 10 10 9 8 13 13 12 7 13 13 16 5 10 10 7 6 10 5
35 32 29 26 29 36 32 29 26 23 21 20 20 18 16 16 16 17 18 15 12 8 4 3 2 4 11 6 10 7 10 11 7 8 10 9 4 10 14 10 9 10 8 6 7 19 6
37 37 35 30 28 31 36 31 28 24 23 21 19 18 17 16 16 16 14 11 8 6 3 3 5 5 13 10 11 6 5 6 4 6 4 7 6 6 8 7 4 7 6 15 14 13 9
42 40 39 37 30 28 33 34 30 27 24 21 19 18 17 15 15 14 10 6 7 4 11 12 2 12 6 6 5 9 8 7 4 8 7 8 5 5 7 7 2 8 16 16 14 10 10
41 42 40 40 38 32 30 34 32 28 24 22 19 18 17 15 14 13 11 7 7 7 11 17 20 16 16 6 8 15 12 11 11 7 8 4 7 7 11 8 15 14 13 9 10 7 10
41 43 44 39 38 35 32 33 33 30 25 23 20 18 17 14 14 15 15 18 3 16 7 12 22 19 16 14 16 16 15 16 8 6 9 3 11 9 13 16 18 14 3 7 7 8 7
39 40 43 42 38 37 31 32 36 34 28 24 21 19 17 11 10 9 11 4 9 5 5 9 15 15 17 11 17 20 9 14 7 5 9 5 19 17 15 15 14 7 13 6 8 6 10
43 44 45 43 37 36 33 34 37 36 31 25 23 20 18 11 8 9 3 5 5 5 4 14 19 17 17 17 14 12 9 11 10 4 5 4 13 14 10 6 5 7 15 9 12 11 2
46 48 47 47 43 37 35 34 36 36 32 26 25 22 18 19 20 14 6 6 6 4 6 9 14 12 15 16 16 5 17 15 12 5 3 5 17 10 6 5 2 8 8 15 10 9 2
49 47 46 47 47 41 36 35 38 36 33 26 26 24 23 18 4 6 13 4 5 7 6 9 14 15 16 14 13 10 14 16 10 9 9 7 17 4 10 7 5 8 9 7 3 5 7
45 51 47 45 45 43 38 37 39 38 34 25 27 24 25 24 14 4 8 5 12 13 19 2 14 16 17 15 13 12 14 15 16 15 10 11 14 11 9 9 6 14 10 4 6 4 10
48 43 46 44 42 46 40 37 39 40 37 26 28 25 28 29 23 9 8 10 10 12 20 9 13 13 17 16 9 11 15 17 18 18 12 4 4 11 2 6 3 5 9 8 4 16 6
47 51 45 47 42 43 43 38 41 41 39 29 31 22 33 30 26 13 8 17 18 21 6 13 15 15 16 15 10 12 14 16 19 15 16 11 7 20 6 4 5 6 9 3 3 3 5
45 47 45 42 40 41 45 39 42 40 39 30 22 11 16 29 26 15 11 17 20 28 9 6 15 16 17 13 15 12 9 9 6 8 4 7 19 7 7 8 10 7 8 8 7 4 1
48 45 43 46 43 36 44 42 42 40 41 33 27 7 19 33 15 18 14 21 28 22 11 9 13 16 15 13 14 13 6 14 12 7 7 8 3 3 8 5 4 9 9 12 3 5 2
50 41 38 37 41 38 41 43 43 43 46 43 30 19 31 34 12 12 19 25 27 23 14 15 12 15 10 11 9 11 6 4 5 4 1 2 3 4 8 8 7 8 12 9 4 3 4
42 39 38 37 38 43 43 43 43 45 47 40 26 9 15 26 24 20 23 23 23 29 16 16 15 12 8 10 8 9 7 3 4 3 4 4 5 8 7 11 7 13 12 12 11 3 3
36 37 38 40 40 44 45 44 44 47 46 41 20 13 16 11 19 18 21 19 24 16 16 20 17 18 12 9 10 9 8 7 4 3 1 2 7 11 14 16 2 12 7 11 13 10 10
36 33 36 37 37 44 45 42 44 48 45 43 18 16 24 19 27 21 21 26 25 21 16 13 14 13 14 10 10 11 12 8 7 8 8 4 2 4 3 10 14 12 14 13 14 12 13
35 34 35 38 38 44 45 44 42 47 47 30 32 23 19 22 21 19 19 23 24 19 20 18 19 15 15 8 12 12 11 7 5 10 9 7 3 2 2 5 7 5 8 15 15 14 10
34 35 33 36 43 45 44 42 44 42 51 31 36 15 11 16 20 22 24 24 21 21 12 10 14 13 11 20 20 17 16 10 9 5 8 4 3 2 1 1 1 9 1 5 5 9 11
32 26 28 35 43 43 44 41 47 42 52 39 38 23 12 9 17 26 25 24 26 26 14 13 7 9 24 12 4 4 2 3 1 4 4 6 4 1 2 4 7 11 2 2 1 3 11
34 33 32 34 38 38 41 43 45 41 53 50 31 29 11 9 18 41 22 23 11 7 7 5 12 15 10 2 2 4 4 5 6 6 3 3 4 1 3 2 4 1 4 3 1 3 9
35 32 32 31 32 36 39 36 35 49 48 50 41 28 13 14 26 39 16 17 21 13 7 12 5 4 2 2 2 2 3 3 5 6 4 3 1 4 3 2 5 2 4 2 2 3 6
31 29 28 30 33 33 33 34 34 52 44 48 45 19 11 8 24 26 24 24 14 17 6 14 7 4 3 2 3 2 2 3 2 5 6 5 5 3 1 2 6 5 5 3 5 4 9
26 26 30 32 31 33 32 33 44 42 44 50 39 20 13 18 10 18 16 14 16 18 17 21 8 13 9 4 1 3 2 2 3 2 3 2 4 2 7 3 5 7 4 3 2 4 6
Wind_Direction
251 250 249 257 256 263 275 284 289 294 297 297 281 280 285 292 298 304 307 311 314 310 310 312 324 310 320 285 265 323 338 38 171 172 218 229 224 225 243 249 226 234 261 246 224 215 191
263 253 248 250 252 254 261 273 282 288 291 292 281 281 285 293 298 304 307 310 312 309 309 315 318 298 304 262 76 328 358 221 182 189 207 223 235 263 295 269 217 221 262 29 241 208 105
263 261 254 245 249 252 253 260 272 281 286 287 279 279 287 292 299 303 308 310 311 306 311 322 309 298 272 242 117 329 279 206 195 205 221 240 268 282 286 288 248 255 270 101 87 153 154
266 260 258 252 245 246 250 247 261 272 279 283 282 279 283 290 298 301 308 310 308 306 313 328 300 295 259 228 264 267 237 232 236 232 246 269 293 285 288 306 284 246 220 170 286 272 166
265 264 260 256 250 244 246 248 249 263 270 275 279 278 280 287 294 300 309 310 306 302 311 295 311 332 267 263 243 268 225 241 247 234 235 249 275 250 266 247 239 226 169 157 183 248 172
260 262 262 257 254 247 241 244 250 253 263 268 274 275 277 284 292 300 307 308 295 280 284 263 237 282 249 216 215 195 189 200 186 173 212 221 220 219 240 233 234 96 277 175 209 210 195
257 259 259 258 251 251 244 238 242 247 259 261 268 270 272 279 287 295 293 293 328 307 218 218 242 226 173 213 232 226 198 199 189 191 229 190 214 227 203 249 213 239 226 214 194 171 229
249 251 255 258 256 248 248 236 236 243 252 254 261 265 266 275 281 283 262 231 2 347 291 248 239 256 270 276 270 218 196 222 187 243 229 177 258 162 232 281 249 259 259 187 131 170 223
251 247 249 252 255 252 242 235 232 237 240 248 254 258 260 267 280 278 262 240 211 339 262 242 219 237 240 226 238 216 200 227 248 215 217 65 285 229 247 219 244 257 247 216 158 196 218
249 246 245 245 250 250 237 232 226 228 233 243 246 251 250 261 291 285 272 296 255 293 275 182 196 232 228 217 234 220 214 234 209 195 259 123 247 234 233 238 236 358 344 199 170 314 211
239 243 246 242 241 245 237 227 222 226 225 239 238 243 241 228 202 206 57 162 230 181 259 169 190 212 199 205 217 216 213 252 258 193 182 224 209 230 217 316 13 169 273 263 251 228 272
241 240 244 244 233 239 236 224 221 221 219 235 230 234 233 226 224 196 221 164 205 232 241 157 149 178 211 206 225 227 189 220 266 225 280 232 285 274 88 192 276 175 238 259 275 266 182
243 235 238 243 236 233 237 224 217 216 215 228 224 229 227 231 229 242 234 207 210 219 246 180 181 195 207 198 212 206 196 201 210 220 224 173 242 113 175 174 192 210 227 243 325 306 280
245 241 236 241 241 228 230 222 215 213 213 218 221 226 227 223 185 242 195 231 227 203 234 193 188 196 206 190 211 201 197 200 206 223 237 227 198 183 212 231 116 258 254 244 164 293 297
241 242 235 236 234 225 226 221 215 211 212 207 215 221 232 219 194 185 225 210 214 227 209 209 189 198 213 202 202 191 209 213 204 218 213 31 286 318 36 252 286 293 247 285 332 196 252
244 241 233 230 227 222 221 218 213 208 210 206 203 217 230 219 197 186 226 225 223 239 261 182 209 198 205 199 191 197 197 219 221 208 187 164 346 268 196 249 257 268 332 281 282 315 285
239 235 231 224 221 218 215 214 210 207 208 201 183 210 233 216 185 202 223 218 235 238 236 219 210 208 224 180 198 197 210 171 181 191 235 232 207 154 145 212 247 185 238 245 288 260 296
236 228 221 225 222 218 209 211 207 203 204 195 182 207 186 186 173 205 223 218 228 239 206 250 258 221 224 201 192 225 150 264 172 218 211 250 311 258 230 267 296 314 288 209 172 269 161
224 219 219 224 228 218 206 207 203 202 200 188 184 183 179 182 194 200 215 226 230 237 191 222 238 247 204 244 186 223 226 80 86 180 267 271 232 266 291 190 213 248 253 266 244 74 213
220 224 221 227 220 219 202 204 201 202 198 180 176 184 168 201 217 198 200 216 223 237 233 210 228 230 196 224 209 205 201 109 119 106 58 342 243 247 238 250 328 200 239 239 233 145 235
213 219 217 220 221 217 198 203 200 202 198 186 194 204 179 184 201 199 200 217 213 204 218 219 213 215 195 207 198 217 199 119 125 111 172 233 242 263 270 262 258 298 265 232 235 228 234
214 213 215 214 218 203 195 203 199 201 198 201 196 202 170 174 191 201 208 215 216 195 193 211 233 209 201 197 226 194 219 155 177 170 201 198 234 315 306 292 289 270 277 270 276 264 253
210 212 213 214 209 188 193 198 201 198 191 202 207 217 197 170 188 200 212 206 217 195 203 209 214 198 217 131 82 63 62 160 205 162 198 162 135 132 242 24 348 325 244 254 266 267 259
208 212 212 200 200 185 194 201 204 201 192 191 198 223 224 177 183 200 206 210 208 213 178 188 218 222 113 113 92 77 78 76 83 45 193 108 150 118 120 320 302 248 14 320 289 286 279
196 201 186 184 189 193 194 202 199 200 200 194 204 235 247 191 187 194 199 206 205 208 177 172 38 109 140 114 108 120 76 61 153 129 129 164 138 147 145 216 278 314 205 329 319 340 27
196 192 192 189 192 195 199 198 198 199 203 200 204 221 250 197 200 190 196 186 199 151 102 67 109 131 150 107 129 173 165 207 156 139 117 91 55 193 163 238 223 115 67 9 353 199 57
191 193 192 193 192 192 195 199 202 197 194 203 214 212 234 219 194 186 189 181 208 136 120 137 150 127 163 91 123 165 171 206 147 161 168 97 187 185 155 239 296 74 115 329 236 69 54
192 192 194 192 188 194 193 193 200 197 202 203 207 208 226 226 166 182 185 187 193 166 142 147 153 160 161 138 155 129 110 201 146 168 163 168 158 188 117 150 267 142 122 131 62 355 1
194 197 195 189 196 191 193 202 199 201 196 197 217 211 173 238 128 144 138 149 191 205 160 170 177 160 174 168 87 73 61 30 42 202 142 190 189 188 177 204 148 182 27 15 325 314 320
Height
1516 1518 1520 1522 1523 1525 1526 1526 1526 1525 1524 1523 1522 1522 1521 1521 1520 1518 1516 1514 1511 1509 1506 1504 1504 1503 1503 1502 1495 1493 1492 1491 1492 1494 1496 1495 1495 1494 1489 1484 1483 1486 1482 1479 1485 1483 1483
1510 1511 1513 1515 1517 1519 1522 1522 1523 1523 1521 1520 1520 1520 1519 1518 1517 1516 1514 1512 1509 1507 1505 1503 1503 1503 1503 1501 1494 1492 1492 1492 1493 1495 1498 1496 1493 1491 1487 1481 1481 1483 1482 1482 1482 1481 1484
1503 1505 1506 1508 1511 1513 1516 1518 1518 1519 1519 1518 1517 1517 1517 1516 1516 1514 1512 1509 1507 1505 1503 1503 1503 1502 1503 1495 1493 1493 1492 1492 1494 1495 1496 1496 1494 1493 1487 1482 1481 1482 1484 1485 1482 1483 1482
1497 1498 1500 1501 1503 1507 1510 1512 1514 1515 1516 1515 1515 1515 1515 1514 1513 1512 1509 1507 1506 1504 1502 1501 1502 1502 1499 1492 1492 1493 1493 1494 1493 1495 1496 1495 1495 1493 1491 1489 1483 1483 1481 1495 1486 1482 1481
1488 1491 1494 1495 1497 1500 1504 1507 1509 1511 1512 1512 1512 1512 1513 1512 1511 1510 1508 1506 1504 1503 1501 1501 1502 1502 1498 1490 1491 1490 1491 1492 1492 1493 1494 1495 1496 1495 1493 1492 1487 1481 1491 1498 1494 1483 1480
1479 1482 1485 1489 1492 1494 1498 1501 1504 1506 1508 1509 1509 1510 1510 1510 1509 1508 1507 1505 1503 1501 1500 1500 1500 1506 1492 1488 1487 1489 1490 1490 1491 1492 1494 1495 1495 1493 1490 1487 1500 1493 1493 1489 1488 1479 1478
1472 1474 1476 1479 1484 1487 1491 1494 1498 1501 1504 1505 1506 1507 1507 1507 1507 1507 1507 1506 1504 1501 1499 1493 1490 1488 1486 1486 1487 1488 1488 1490 1490 1492 1491 1490 1493 1494 1486 1484 1483 1482 1483 1483 1476 1475 1480
1461 1464 1467 1470 1474 1480 1483 1487 1492 1496 1499 1501 1503 1504 1504 1505 1505 1505 1506 1507 1503 1504 1496 1487 1487 1488 1488 1487 1486 1485 1486 1487 1486 1486 1485 1489 1493 1487 1488 1485 1484 1480 1479 1477 1475 1477 1480
1450 1454 1457 1461 1465 1469 1475 1479 1485 1490 1494 1497 1499 1500 1502 1502 1502 1502 1502 1502 1500 1501 1495 1480 1482 1485 1485 1485 1484 1481 1483 1482 1482 1482 1485 1496 1494 1485 1485 1485 1484 1476 1478 1483 1482 1481 1480
1440 1443 1447 1452 1456 1459 1466 1471 1478 1483 1489 1492 1495 1497 1498 1501 1503 1500 1499 1499 1501 1501 1494 1474 1478 1481 1482 1481 1480 1477 1477 1480 1478 1484 1482 1499 1487 1483 1483 1481 1477 1491 1484 1479 1487 1494 1496
1427 1432 1436 1441 1447 1451 1456 1463 1469 1475 1482 1486 1490 1493 1495 1499 1497 1501 1502 1502 1502 1502 1502 1461 1470 1474 1475 1477 1473 1475 1479 1480 1480 1477 1483 1484 1479 1481 1482 1479 1476 1490 1480 1482 1477 1483 1485
1416 1420 1425 1430 1437 1442 1448 1454 1461 1468 1475 1480 1484 1488 1492 1494 1493 1497 1498 1500 1503 1500 1497 1463 1463 1470 1471 1473 1471 1469 1476 1480 1478 1479 1477 1485 1478 1475 1478 1477 1477 1479 1483 1480 1475 1479 1506
1403 1407 1413 1419 1426 1433 1439 1445 1454 1461 1468 1474 1479 1482 1487 1490 1495 1497 1499 1500 1500 1492 1459 1460 1462 1466 1468 1469 1469 1469 1473 1477 1480 1489 1485 1482 1476 1472 1474 1477 1477 1477 1481 1497 1511 1511 1503
1390 1396 1402 1408 1415 1422 1430 1437 1445 1454 1462 1468 1474 1478 1481 1485 1489 1493 1498 1499 1488 1466 1459 1448 1456 1461 1467 1462 1465 1466 1469 1475 1473 1474 1478 1483 1486 1472 1472 1472 1487 1481 1479 1498 1540 1546 1510
1379 1384 1391 1398 1404 1412 1421 1428 1438 1446 1455 1463 1468 1473 1474 1478 1485 1490 1495 1492 1473 1454 1452 1450 1454 1461 1462 1456 1460 1463 1465 1469 1465 1467 1481 1498 1496 1475 1471 1471 1475 1476 1481 1472 1490 1506 1501
1367 1373 1380 1387 1394 1401 1411 1420 1429 1439 1448 1455 1462 1468 1466 1473 1482 1488 1488 1476 1463 1450 1445 1447 1456 1454 1460 1456 1463 1462 1463 1458 1459 1459 1467 1503 1518 1485 1475 1477 1475 1478 1475 1488 1486 1510 1513
1354 1361 1368 1376 1384 1392 1400 1410 1421 1431 1439 1450 1459 1466 1460 1468 1477 1484 1473 1463 1458 1448 1446 1446 1451 1453 1450 1453 1457 1458 1457 1452 1457 1461 1465 1469 1491 1478 1478 1479 1476 1478 1482 1481 1482 1488 1505
1343 1349 1357 1365 1375 1381 1392 1402 1412 1423 1433 1444 1450 1457 1451 1458 1471 1467 1464 1457 1453 1446 1447 1450 1447 1445 1447 1445 1452 1455 1462 1457 1455 1460 1468 1466 1469 1483 1476 1467 1468 1470 1473 1476 1498 1501 1494
1332 1339 1348 1356 1366 1373 1384 1393 1404 1414 1421 1432 1440 1449 1451 1451 1451 1452 1459 1453 1448 1446 1445 1451 1448 1445 1443 1445 1453 1452 1452 1463 1462 1462 1467 1466 1474 1489 1482 1473 1470 1475 1472 1471 1473 1487 1498
1323 1332 1340 1349 1356 1364 1375 1385 1395 1405 1413 1427 1435 1438 1440 1446 1443 1444 1449 1447 1445 1443 1442 1445 1446 1444 1444 1447 1446 1453 1453 1464 1466 1466 1471 1472 1472 1477 1491 1478 1469 1474 1473 1469 1474 1497 1497
1315 1324 1332 1340 1348 1356 1367 1376 1387 1396 1406 1419 1420 1414 1415 1425 1431 1433 1441 1439 1438 1439 1440 1440 1444 1444 1446 1452 1450 1454 1452 1464 1467 1470 1472 1474 1480 1475 1470 1466 1469 1471 1468 1468 1472 1475 1489
1309 1317 1324 1332 1339 1348 1360 1370 1379 1388 1400 1410 1406 1403 1409 1415 1428 1431 1431 1431 1429 1432 1438 1439 1441 1441 1443 1447 1448 1452 1451 1458 1464 1471 1471 1473 1480 1478 1481 1472 1470 1475 1470 1467 1467 1466 1468
1302 1310 1317 1324 1333 1341 1353 1364 1373 1380 1393 1397 1401 1399 1401 1409 1418 1424 1420 1423 1424 1428 1431 1434 1438 1438 1440 1443 1445 1451 1451 1451 1455 1464 1469 1472 1481 1488 1489 1485 1486 1494 1479 1472 1468 1464 1465
1297 1303 1309 1316 1327 1337 1349 1358 1367 1375 1382 1392 1397 1400 1399 1400 1405 1407 1417 1418 1419 1423 1428 1432 1434 1433 1445 1447 1451 1456 1458 1461 1461 1465 1464 1478 1481 1486 1492 1502 1506 1470 1461 1462 1464 1461 1459
1293 1299 1305 1313 1325 1335 1345 1354 1363 1370 1380 1387 1397 1400 1399 1399 1398 1411 1414 1412 1417 1420 1423 1430 1439 1437 1442 1447 1457 1466 1469 1473 1470 1467 1470 1472 1480 1490 1502 1491 1477 1469 1463 1467 1468 1468 1465
1291 1299 1307 1314 1323 1332 1341 1350 1359 1366 1376 1382 1388 1396 1398 1396 1391 1399 1404 1407 1412 1417 1426 1439 1443 1444 1445 1450 1456 1462 1468 1463 1470 1473 1474 1476 1478 1485 1492 1495 1498 1471 1469 1470 1468 1477 1472
1290 1299 1306 1313 1321 1330 1339 1346 1355 1363 1371 1381 1383 1393 1399 1397 1391 1395 1398 1405 1411 1418 1428 1439 1445 1447 1448 1455 1467 1459 1461 1452 1467 1474 1489 1485 1485 1494 1490 1496 1484 1464 1469 1471 1482 1484 1476
1290 1297 1305 1311 1320 1329 1338 1345 1351 1361 1370 1377 1379 1386 1383 1387 1387 1393 1401 1406 1410 1415 1426 1435 1444 1445 1447 1454 1459 1454 1463 1457 1458 1458 1473 1478 1483 1491 1487 1501 1500 1469 1472 1479 1476 1475 1476
1290 1295 1302 1310 1318 1326 1334 1341 1350 1360 1369 1377 1382 1384 1385 1392 1390 1391 1397 1403 1409 1417 1422 1430 1430 1435 1440 1442 1449 1452 1468 1469 1465 1470 1457 1470 1466 1471 1476 1476 1469 1469 1471 1472 1474 1476 1477